Location: Brusselsch Zeekanaal
(50.8667°N, 4.3667°E)
Time: 01:36:54
(UTC+00:00)

NOAA 12 - Pass Details

Date: 08 November 2025
Orbit: 793 x 812 km, 98.6° (Epoch: 13 December)

Event Time Altitude Azimuth Distance (km) Brightness Sun altitude
Rises 05:37:02 0° 11° (N) 3,347 7.3 -11.2°
Reaches altitude 10° 05:39:25 10° 7° (N) 2,412 6.5 -10.8°
Maximum altitude 05:44:34 52° 293° (WNW) 1,012 4.3 -10.0°
Drops below altitude 10° 05:49:42 10° 218° (SW) 2,397 6.3 -9.2°
Sets 05:52:05 0° 214° (SSW) 3,323 7.1 -8.9°
